{"data":{"norad_id":46725,"epoch":"2026-09-20T06:00:02.000160Z","epoch_age_seconds":47369,"freshness":"FRESH","line1":"1 46725U 20073BH  26263.25002315  .00759891  26003-3  18531-2 0  9996","line2":"2 46725  53.0395 352.9162 0004307 357.5444 257.5837 15.95653984  6036","mean_motion":15.95653984,"eccentricity":0.0004307,"inclination_deg":53.0395,"raan_deg":352.9162,"arg_perigee_deg":357.5444,"mean_anomaly_deg":257.5837,"bstar":0.0018531,"rev_number":603,"period_min":90.245129234735,"perigee_km":283.62229360243,"apogee_km":289.36320566877,"semimajor_km":6664.6297496356,"source":"CELESTRAK","updated_at":"2026-09-20T09:00:38.587085Z"}}